Skip Page Navigation
NASA JPL Caltech
NASA Logo - Jet Propulsion Laboratory + View the NASA Portal
+ Center for Near-Earth Object Studies
JPL Home Earth Solar System Stars & Galaxies Technology
JPL Solar System Dynamics
BODIES ORBITS EPHEMERIDES TOOLS PHYSICAL DATA DISCOVERY FAQ SITE MAP
IMPORTANT: The SSD Announcement email list is now available. Major changes are coming in the near future, including possible hostname and/or URL changes. To be notified of such changes, subscribe to this email list.

Please visit this page for more details.


JPL Small-Body Database Browser
Search: [ help ]  
437835 (1995 UX80)
Classification: Main-belt Asteroid          SPK-ID: 2437835
Ephemeris | Orbit Diagram | Orbital Elements | Mission Design | Physical Parameters | Discovery Circumstances ]

[ show orbit diagram ]
Orbital Elements at Epoch 2458600.5 (2019-Apr-27.0) TDB
Reference: JPL 10 (heliocentric ecliptic J2000)
 Element Value Uncertainty (1-sigma)   Units 
e .1072707122498544 2.3562e-07  
a 2.547926382944818 2.9706e-08 au
q 2.274608505086132 6.1926e-07 au
i 14.69168607858881 1.5517e-05 deg
node 213.8868327873048 3.829e-05 deg
peri 199.2774911681308 9.5256e-05 deg
M 272.7478333058027 9.717e-05 deg
tp 2458960.541415300253
(2020-Apr-21.04141530)
0.00040587 TDB
period 1485.520811905651
4.07
2.5979e-05
7.113e-08
d
yr
n .2423392503927199 4.2381e-09 deg/d
Q 2.821244260803503 3.2892e-08 au
  Orbit Determination Parameters
   # obs. used (total)      85  
   data-arc span      8768 days (24.01 yr)  
   first obs. used      1995-10-25  
   last obs. used      2019-10-27  
   planetary ephem.      DE431  
   SB-pert. ephem.      SB431-N16  
   condition code      0  
   norm. resid. RMS      .66365  
   source      ORB  
   producer      Otto Matic  
   solution date      2019-Nov-08 15:45:51  

Additional Information
 Earth MOID = 1.28789 au 
 Jupiter MOID = 2.58137 au 
 T_jup = 3.388 
[ show covariance matrix ]

Ephemeris | Orbit Diagram | Orbital Elements | Mission Design | Physical Parameters | Discovery Circumstances ]

Physical Parameter Table
Parameter Symbol Value Units Sigma Reference Notes
absolute magnitude H 17.5   n/a MPO450438  

437835 (1995 UX80)          Discovered 1995-Oct-25 by Spacewatch at Kitt Peak
Reference: Last Updated: 2015-07-06

Alternate Designations
 1995 UX80 = 1999 TS305 
Ephemeris | Orbit Diagram | Orbital Elements | Mission Design | Physical Parameters | Discovery Circumstances ]
ABOUT SSD CREDITS/AWARDS PRIVACY/COPYRIGHT GLOSSARY LINKS
FirstGov 2019-Dec-15 19:44 UT
(server date/time)  
NASA Home Page
Site Manager:   Ryan S. Park
Webmaster  Alan B. Chamberlin